[Date Prev][Date Next][Thread Prev][Thread Next] - [Date Index][Thread Index][Author Index]

2 Line ISS Keps 10-24



ISS
1 25544U 98067A   02297.13379630  .00030621  00000-0  41638-3 0  2958
2 25544  51.6353 125.4126 0014989  65.6654  92.0061 15.57186569224086


----
Via the sarex mailing list at AMSAT.ORG courtesy of AMSAT-NA.
To unsubscribe, send "unsubscribe sarex" to Majordomo@amsat.org



AMSAT Top AMSAT Home